TimeMDT,TemperatureF,Dew PointF,Humidity,Sea Level PressureIn,VisibilityMPH,Wind Direction,Wind SpeedMPH,Gust SpeedMPH,PrecipitationIn,Events,Conditions,WindDirDegrees,DateUTC
12:53 AM,43.0,24.1,47,29.97,10.0,SSW,3.5,-,N/A,,Clear,210,2012-03-25 06:53:00
1:53 AM,42.1,23.0,47,29.97,10.0,Calm,Calm,-,N/A,,Clear,0,2012-03-25 07:53:00
2:53 AM,43.0,23.0,45,29.96,10.0,SSW,3.5,-,N/A,,Clear,200,2012-03-25 08:53:00
3:53 AM,41.0,23.0,49,29.95,10.0,Calm,Calm,-,N/A,,Clear,0,2012-03-25 09:53:00
5:53 AM,37.0,21.9,54,29.97,10.0,SE,4.6,-,N/A,,Clear,140,2012-03-25 11:53:00
6:53 AM,37.0,21.9,54,29.98,10.0,Calm,Calm,-,N/A,,Clear,0,2012-03-25 12:53:00
7:53 AM,39.0,24.1,55,30.00,10.0,Calm,Calm,-,N/A,,Clear,0,2012-03-25 13:53:00
8:53 AM,45.0,27.0,49,30.00,10.0,Calm,Calm,-,N/A,,Clear,0,2012-03-25 14:53:00
9:53 AM,54.0,26.1,34,29.96,10.0,Calm,Calm,-,N/A,,Clear,0,2012-03-25 15:53:00
10:53 AM,59.0,26.1,28,29.94,10.0,West,3.5,-,N/A,,Clear,260,2012-03-25 16:53:00
11:53 AM,66.0,26.1,22,29.89,10.0,WNW,5.8,-,N/A,,Clear,290,2012-03-25 17:53:00
12:53 PM,72.0,23.0,16,29.84,10.0,Variable,5.8,-,N/A,,Clear,0,2012-03-25 18:53:00
1:53 PM,75.0,23.0,14,29.81,10.0,West,18.4,25.3,N/A,,Clear,270,2012-03-25 19:53:00
2:53 PM,73.9,21.0,14,29.78,10.0,West,12.7,-,N/A,,Clear,280,2012-03-25 20:53:00
3:53 PM,73.0,21.0,14,29.78,10.0,West,11.5,-,N/A,,Clear,260,2012-03-25 21:53:00
4:53 PM,73.0,19.0,13,29.78,10.0,West,9.2,-,N/A,,Clear,270,2012-03-25 22:53:00
5:53 PM,71.1,18.0,13,29.78,10.0,West,5.8,-,N/A,,Clear,280,2012-03-25 23:53:00
6:53 PM,68.0,19.0,15,29.77,10.0,SSW,4.6,-,N/A,,Clear,200,2012-03-26 00:53:00
7:53 PM,61.0,21.9,22,29.80,10.0,SSE,5.8,-,N/A,,Clear,160,2012-03-26 01:53:00
8:53 PM,59.0,21.9,24,29.78,10.0,ESE,4.6,-,N/A,,Clear,110,2012-03-26 02:53:00
9:53 PM,55.9,23.0,28,29.76,10.0,ESE,10.4,-,N/A,,Clear,110,2012-03-26 03:53:00
10:53 PM,51.1,23.0,33,29.75,10.0,SE,6.9,-,N/A,,Clear,140,2012-03-26 04:53:00
11:53 PM,51.1,24.1,35,29.72,10.0,NE,4.6,-,N/A,,Clear,50,2012-03-26 05:53:00